SHIYAN 7 (SY-7)         
1 39208U 13037A   19261.77746815 -.00000004  00000-0  75727-5 0  9998
2 39208  97.9990 264.4631 0009864  59.1255 301.0920 14.68242985330401
CHUANGXIN-3 (CX-3)      
1 39209U 13037B   19262.21872058 -.00000011  00000-0  64288-5 0  9996
2 39209  98.0032 264.5747 0005908  60.1887 299.9904 14.68352654330433
SHIJIAN-15 (SJ-15)      
1 39210U 13037C   19261.82500506 -.00000021  00000-0  47433-5 0  9994
2 39210  98.0046 263.5119 0007940  53.9281 306.2647 14.67664804332719
CZ-4C R/B               
1 39211U 13037D   19262.18441759  .00000197  00000-0  16217-4 0  9997
2 39211  97.9433  18.3118 0125699  43.5664 317.5405 15.05193427338247
CZ-4C DEB               
1 39212U 13037E   19261.93589544  .00000175  00000-0  35302-4 0  9997
2 39212  97.9635 272.3273 0006771  36.6236 323.5433 14.72557251331022
CZ-4C DEB               
1 39213U 13037F   19261.95388859  .00000030  00000-0  12864-4 0  9994
2 39213  97.9732 268.2362 0012926  39.0481 321.1656 14.70672076330865
CZ-4C DEB               
1 39214U 13037G   19261.95622439  .00000005  00000-0  91471-5 0  9994
2 39214  98.0097 261.0791 0013293 356.4322   3.6786 14.68493346329993
CZ-4C DEB               
1 39231U 13037H   19261.31014917  .00000097  00000-0  55088-4 0  9993
2 39231  98.0784  98.2490 0255345 178.6079 181.5863 14.11718979312321
SHIYAN 7 DEB            
1 39357U 13037J   19261.94572266 -.00000012  00000-0  62024-5 0  9994
2 39357  97.9998 264.8469 0009633  61.9870 298.2308 14.68463961330445